BCS679 VHHH-UAAA

Flight info

Callsign BCS679
Flight time N/A
Altitude 36100
Route BEKOL A461 SHL W22 TEPID W24 OSNOV G586 QP B330 ELKAL W179 RIRKI W232 WFX W179 OMBON Y1 AKAGI/K0895S1160 Y1 SADAN L888 XKC A460 RULAD/K0878F380 M610 PIGAL PIGAL4C
Aircraft A333/H-SDE3GHIJ2J3J5M1RVWXY/LB2D1

Departure

Time 2026-05-03 21:53
Airport Hong Kong International Airport (VHHH)

Arrival

Time N/A
Airport Almaty International Airport (UAAA)
Time Latitude Longitude Altitude Speed Heading
2026-05-03 21:33 22.30085 113.92139 34 ft 0 kts 339°
2026-05-03 21:40 22.30070 113.92145 33 ft 4 kts 341°
2026-05-03 21:40 22.30045 113.92156 33 ft 4 kts 332°
2026-05-03 21:40 22.30023 113.92171 33 ft 4 kts 323°
2026-05-03 21:41 22.30015 113.92177 32 ft 1 kts 324°
2026-05-03 21:43 22.30016 113.92177 32 ft 0 kts 323°
2026-05-03 21:43 22.30020 113.92168 34 ft 2 kts 297°
2026-05-03 21:43 22.30015 113.92150 34 ft 2 kts 234°
2026-05-03 21:44 22.29993 113.92134 34 ft 4 kts 216°
2026-05-03 21:44 22.29971 113.92108 34 ft 5 kts 235°
2026-05-03 21:44 22.29958 113.92074 34 ft 5 kts 248°
2026-05-03 21:44 22.29945 113.92036 34 ft 6 kts 249°
2026-05-03 21:45 22.29931 113.91993 34 ft 6 kts 251°
2026-05-03 21:45 22.29916 113.91948 34 ft 7 kts 250°
2026-05-03 21:45 22.29899 113.91900 34 ft 7 kts 250°
2026-05-03 21:45 22.29882 113.91848 34 ft 7 kts 250°
2026-05-03 21:46 22.29868 113.91795 34 ft 7 kts 270°
2026-05-03 21:46 22.29894 113.91759 34 ft 6 kts 325°
2026-05-03 21:46 22.29939 113.91734 34 ft 9 kts 335°
2026-05-03 21:46 22.30004 113.91708 34 ft 11 kts 341°
2026-05-03 21:47 22.30031 113.91644 34 ft 11 kts 254°
2026-05-03 21:47 22.30002 113.91555 34 ft 14 kts 251°
2026-05-03 21:47 22.29967 113.91446 34 ft 16 kts 251°
2026-05-03 21:47 22.29930 113.91331 35 ft 16 kts 251°
2026-05-03 21:48 22.29900 113.91238 35 ft 13 kts 251°
2026-05-03 21:48 22.29871 113.91145 35 ft 13 kts 251°
2026-05-03 21:48 22.29841 113.91050 35 ft 13 kts 251°
2026-05-03 21:48 22.29811 113.90953 35 ft 14 kts 251°
2026-05-03 21:49 22.29780 113.90854 34 ft 14 kts 251°
2026-05-03 21:49 22.29747 113.90749 34 ft 15 kts 251°
2026-05-03 21:49 22.29712 113.90643 33 ft 15 kts 250°
2026-05-03 21:49 22.29677 113.90536 33 ft 15 kts 250°
2026-05-03 21:50 22.29642 113.90427 33 ft 16 kts 250°
2026-05-03 21:50 22.29606 113.90316 33 ft 16 kts 251°
2026-05-03 21:50 22.29570 113.90205 33 ft 16 kts 251°
2026-05-03 21:50 22.29535 113.90098 33 ft 15 kts 251°
2026-05-03 21:51 22.29500 113.89989 33 ft 15 kts 251°
2026-05-03 21:51 22.29501 113.89889 34 ft 9 kts 292°
2026-05-03 21:51 22.29545 113.89848 34 ft 8 kts 335°
2026-05-03 21:51 22.29602 113.89844 34 ft 10 kts 12°
2026-05-03 21:52 22.29653 113.89908 34 ft 13 kts 68°
2026-05-03 21:52 22.29717 113.90102 32 ft 53 kts 70°
2026-05-03 21:52 22.29907 113.90691 34 ft 112 kts 71°
2026-05-03 21:52 22.30222 113.91669 34 ft 163 kts 71°
2026-05-03 21:53 22.30619 113.92931 467 ft 180 kts 71°
2026-05-03 21:53 22.31003 113.94192 1328 ft 176 kts 70°
2026-05-03 21:53 22.31413 113.95460 1745 ft 186 kts 69°
2026-05-03 21:53 22.31871 113.96842 1993 ft 205 kts 69°
2026-05-03 21:54 22.32375 113.98376 2130 ft 229 kts 69°
2026-05-03 21:54 22.32918 114.00049 2475 ft 241 kts 69°
2026-05-03 21:54 22.33474 114.01791 2958 ft 249 kts 71°
2026-05-03 21:54 22.33799 114.03654 3438 ft 257 kts 88°
2026-05-03 21:55 22.33500 114.05558 4033 ft 260 kts 112°
2026-05-03 21:55 22.32540 114.07198 4623 ft 260 kts 136°
2026-05-03 21:55 22.31067 114.08300 5145 ft 259 kts 160°
2026-05-03 21:55 22.29481 114.08709 5633 ft 258 kts 178°
2026-05-03 21:56 22.27688 114.08764 6180 ft 259 kts 184°
2026-05-03 21:56 22.25876 114.08742 6715 ft 262 kts 184°
2026-05-03 21:56 22.24049 114.08710 7225 ft 265 kts 185°
2026-05-03 21:56 22.22163 114.08676 7585 ft 276 kts 185°
2026-05-03 21:57 22.20240 114.08667 7903 ft 285 kts 181°
2026-05-03 21:57 22.18285 114.09115 7988 ft 292 kts 158°
2026-05-03 21:57 22.16682 114.10463 8003 ft 298 kts 129°
2026-05-03 21:57 22.15843 114.12503 8010 ft 302 kts 101°
2026-05-03 21:58 22.15606 114.14761 8010 ft 305 kts 94°
2026-05-03 21:58 22.15489 114.17049 8010 ft 306 kts 93°
2026-05-03 21:58 22.15377 114.19344 8014 ft 306 kts 94°
2026-05-03 21:58 22.15252 114.21668 8016 ft 306 kts 94°
2026-05-03 21:59 22.15127 114.23932 8020 ft 306 kts 92°
2026-05-03 21:59 22.15284 114.26220 8019 ft 306 kts 79°
2026-05-03 21:59 22.15729 114.28494 8021 ft 306 kts 76°
2026-05-03 21:59 22.16220 114.30735 8018 ft 308 kts 76°
2026-05-03 22:00 22.16714 114.32981 8018 ft 308 kts 76°
2026-05-03 22:00 22.17205 114.35231 8017 ft 308 kts 76°
2026-05-03 22:00 22.17692 114.37478 8017 ft 308 kts 76°
2026-05-03 22:00 22.18247 114.39675 8017 ft 307 kts 66°
2026-05-03 22:01 22.19419 114.41551 8225 ft 303 kts 38°
2026-05-03 22:01 22.21244 114.42607 8695 ft 297 kts
2026-05-03 22:01 22.23274 114.42685 9258 ft 291 kts 348°
2026-05-03 22:01 22.25276 114.42348 9832 ft 292 kts 345°
2026-05-03 22:02 22.27298 114.41941 10228 ft 301 kts 344°
2026-05-03 22:02 22.29399 114.41515 10440 ft 316 kts 345°
2026-05-03 22:02 22.31620 114.41075 10633 ft 331 kts 345°
2026-05-03 22:02 22.33935 114.40627 10814 ft 345 kts 345°
2026-05-03 22:03 22.36343 114.40166 11003 ft 358 kts 346°
2026-05-03 22:03 22.38833 114.39692 11177 ft 370 kts 346°
2026-05-03 22:03 22.41411 114.39202 11372 ft 381 kts 346°
2026-05-03 22:03 22.44039 114.38701 11759 ft 385 kts 345°
2026-05-03 22:04 22.46595 114.37902 12144 ft 382 kts 331°
2026-05-03 22:04 22.48808 114.36380 12551 ft 376 kts 313°
2026-05-03 22:04 22.50440 114.34224 12988 ft 369 kts 296°
2026-05-03 22:04 22.51379 114.31658 13446 ft 366 kts 281°
2026-05-03 22:05 22.51883 114.28963 13878 ft 366 kts 277°
2026-05-03 22:05 22.52306 114.26240 14244 ft 369 kts 277°
2026-05-03 22:05 22.52729 114.23496 14624 ft 371 kts 277°
2026-05-03 22:05 22.53161 114.20732 14987 ft 373 kts 277°
2026-05-03 22:06 22.53686 114.17976 15388 ft 376 kts 283°
2026-05-03 22:06 22.54684 114.15334 15747 ft 384 kts 296°
2026-05-03 22:06 22.56315 114.13010 16088 ft 395 kts 311°
2026-05-03 22:06 22.58518 114.11179 16428 ft 405 kts 323°
2026-05-03 22:07 22.60991 114.09670 16765 ft 410 kts 328°
2026-05-03 22:07 22.63572 114.08313 17096 ft 414 kts 330°
2026-05-03 22:07 22.66205 114.07021 17414 ft 417 kts 330°
2026-05-03 22:07 22.68859 114.05739 17791 ft 418 kts 330°
2026-05-03 22:08 22.71520 114.04442 18131 ft 420 kts 330°
2026-05-03 22:08 22.74182 114.03120 18398 ft 422 kts 329°
2026-05-03 22:08 22.76843 114.01774 18669 ft 423 kts 329°
2026-05-03 22:08 22.79511 114.00410 18966 ft 425 kts 329°
2026-05-03 22:09 22.82176 113.99037 19335 ft 423 kts 329°
2026-05-03 22:09 22.84837 113.97664 19614 ft 425 kts 329°
2026-05-03 22:09 22.87510 113.96281 19860 ft 427 kts 329°
2026-05-03 22:10 22.92890 113.93492 20368 ft 430 kts 328°
2026-05-03 22:10 22.95590 113.92087 20624 ft 431 kts 328°
2026-05-03 22:10 22.98299 113.90676 20874 ft 433 kts 328°
2026-05-03 22:10 23.01020 113.89257 21136 ft 434 kts 328°
2026-05-03 22:11 23.03743 113.87838 21368 ft 436 kts 328°
2026-05-03 22:11 23.06471 113.86384 21613 ft 435 kts 326°
2026-05-03 22:11 23.09034 113.84662 21859 ft 432 kts 319°
2026-05-03 22:11 23.11367 113.82626 22102 ft 430 kts 314°
2026-05-03 22:12 23.13594 113.80469 22402 ft 429 kts 312°
2026-05-03 22:12 23.15762 113.78251 22693 ft 428 kts 311°
2026-05-03 22:12 23.17907 113.75995 22937 ft 430 kts 310°
2026-05-03 22:12 23.20050 113.73719 23148 ft 432 kts 310°
2026-05-03 22:13 23.22202 113.71433 23372 ft 433 kts 310°
2026-05-03 22:13 23.24365 113.69143 23589 ft 435 kts 311°
2026-05-03 22:13 23.26543 113.66847 23760 ft 437 kts 311°
2026-05-03 22:13 23.28732 113.64545 23964 ft 438 kts 311°
2026-05-03 22:14 23.30928 113.62241 24156 ft 440 kts 311°
2026-05-03 22:14 23.33137 113.59925 24348 ft 441 kts 311°
2026-05-03 22:14 23.35352 113.57602 24537 ft 443 kts 311°
2026-05-03 22:14 23.37573 113.55272 24729 ft 445 kts 311°
2026-05-03 22:15 23.39802 113.52929 24916 ft 446 kts 311°
2026-05-03 22:15 23.42039 113.50579 25125 ft 447 kts 311°
2026-05-03 22:15 23.44279 113.48223 25339 ft 449 kts 311°
2026-05-03 22:15 23.46530 113.45855 25524 ft 451 kts 311°
2026-05-03 22:16 23.48788 113.43480 25697 ft 452 kts 311°
2026-05-03 22:16 23.51052 113.41095 25875 ft 454 kts 311°
2026-05-03 22:16 23.53330 113.38693 26052 ft 457 kts 311°
2026-05-03 22:16 23.55605 113.36272 26264 ft 457 kts 310°
2026-05-03 22:17 23.57876 113.33837 26466 ft 459 kts 310°
2026-05-03 22:17 23.60151 113.31389 26651 ft 461 kts 310°
2026-05-03 22:17 23.62432 113.28930 26843 ft 462 kts 310°
2026-05-03 22:17 23.64673 113.26419 27021 ft 461 kts 306°
2026-05-03 22:18 23.66631 113.23664 27211 ft 458 kts 299°
2026-05-03 22:18 23.68217 113.20670 27401 ft 456 kts 293°
2026-05-03 22:18 23.69630 113.17574 27608 ft 456 kts 291°
2026-05-03 22:18 23.70968 113.14433 27809 ft 457 kts 291°
2026-05-03 22:19 23.72271 113.11263 27980 ft 459 kts 290°
2026-05-03 22:19 23.73566 113.08076 28178 ft 460 kts 291°
2026-05-03 22:19 23.75069 113.04975 28353 ft 465 kts 297°
2026-05-03 22:19 23.76961 113.02083 28568 ft 471 kts 306°
2026-05-03 22:20 23.79262 112.99498 28719 ft 480 kts 314°
2026-05-03 22:20 23.81971 112.97328 28939 ft 487 kts 324°
2026-05-03 22:20 23.85022 112.95669 29214 ft 494 kts 333°
2026-05-03 22:20 23.87168 112.94815 29436 ft 495 kts 335°
2026-05-03 22:21 23.90441 112.93652 29748 ft 495 kts 337°
2026-05-03 22:21 23.93746 112.92567 29980 ft 496 kts 338°
2026-05-03 22:21 23.97058 112.91510 30213 ft 496 kts 338°
2026-05-03 22:21 24.00366 112.90455 30441 ft 495 kts 338°
2026-05-03 22:22 24.03670 112.89389 30670 ft 495 kts 338°
2026-05-03 22:22 24.06961 112.88313 30905 ft 494 kts 338°
2026-05-03 22:22 24.10250 112.87227 31149 ft 493 kts 338°
2026-05-03 22:22 24.13528 112.86137 31386 ft 492 kts 338°
2026-05-03 22:23 24.16807 112.85044 31600 ft 492 kts 337°
2026-05-03 22:23 24.20090 112.83946 31713 ft 494 kts 338°
2026-05-03 22:23 24.23377 112.82853 31912 ft 494 kts 337°
2026-05-03 22:23 24.26666 112.81758 32141 ft 493 kts 337°
2026-05-03 22:24 24.29946 112.80667 32350 ft 493 kts 338°
2026-05-03 22:24 24.33225 112.79575 32549 ft 493 kts 337°
2026-05-03 22:24 24.36488 112.78438 32774 ft 490 kts 334°
2026-05-03 22:24 24.39587 112.76941 32927 ft 484 kts 326°
2026-05-03 22:25 24.42422 112.74990 33058 ft 478 kts 317°
2026-05-03 22:25 24.44902 112.72607 33283 ft 470 kts 308°
2026-05-03 22:25 24.46964 112.69876 33516 ft 462 kts 299°
2026-05-03 22:25 24.48582 112.66862 33655 ft 456 kts 290°
2026-05-03 22:26 24.49723 112.63641 33853 ft 450 kts 281°
2026-05-03 22:26 24.50391 112.60309 34058 ft 445 kts 274°
2026-05-03 22:26 24.50808 112.56951 34327 ft 442 kts 272°
2026-05-03 22:26 24.51140 112.53606 34610 ft 439 kts 271°
2026-05-03 22:27 24.51435 112.50323 34850 ft 437 kts 271°
2026-05-03 22:27 24.51725 112.47011 35082 ft 435 kts 271°
2026-05-03 22:27 24.52019 112.43707 35327 ft 433 kts 271°
2026-05-03 22:27 24.52320 112.40428 35606 ft 430 kts 271°
2026-05-03 22:28 24.52627 112.37164 35846 ft 429 kts 271°
2026-05-03 22:28 24.52936 112.33906 36064 ft 429 kts 271°
2026-05-03 22:28 24.53247 112.30641 36095 ft 430 kts 271°
2026-05-03 22:29 24.53869 112.24090 36129 ft 432 kts 272°
2026-05-03 22:29 24.54493 112.17521 36126 ft 433 kts 272°
2026-05-03 22:30 24.55116 112.10947 36125 ft 432 kts 271°
2026-05-03 22:30 24.55738 112.04381 36124 ft 432 kts 271°
2026-05-03 22:31 24.56355 111.97819 36121 ft 432 kts 271°
2026-05-03 22:31 24.56964 111.91271 36116 ft 432 kts 271°
2026-05-03 22:32 24.57574 111.84698 36125 ft 432 kts 271°
2026-05-03 22:32 24.58180 111.78135 36123 ft 432 kts 271°
2026-05-03 22:33 24.58783 111.71597 36122 ft 429 kts 271°
2026-05-03 22:33 24.59379 111.65077 36122 ft 429 kts 271°
2026-05-03 22:34 24.59972 111.58559 36121 ft 428 kts 271°
2026-05-03 22:34 24.60561 111.52052 36122 ft 428 kts 271°
2026-05-03 22:35 24.61152 111.45543 36117 ft 428 kts 271°
2026-05-03 22:35 24.61732 111.39028 36121 ft 429 kts 271°
2026-05-03 22:36 24.62315 111.32505 36128 ft 429 kts 271°
2026-05-03 22:36 24.62890 111.25989 36128 ft 428 kts 271°
2026-05-03 22:37 24.63453 111.19480 36117 ft 428 kts 271°
2026-05-03 22:37 24.64014 111.12959 36126 ft 428 kts 271°
2026-05-03 22:38 24.64565 111.06464 36128 ft 426 kts 271°
2026-05-03 22:38 24.65121 110.99986 36121 ft 426 kts 271°
2026-05-03 22:39 24.65674 110.93513 36123 ft 425 kts 271°
2026-05-03 22:39 24.66221 110.87043 36111 ft 425 kts 271°
2026-05-03 22:40 24.67365 110.80633 36115 ft 433 kts 283°
2026-05-03 22:40 24.70194 110.74697 36114 ft 448 kts 300°
2026-05-03 22:41 24.74485 110.69626 36104 ft 456 kts 308°
2026-05-03 22:41 24.79073 110.64835 36125 ft 458 kts 308°
2026-05-03 22:42 24.83721 110.60043 36118 ft 457 kts 308°
2026-05-03 22:42 24.88324 110.55232 36116 ft 456 kts 308°
2026-05-03 22:43 24.92907 110.50395 36126 ft 456 kts 307°
2026-05-03 22:43 24.97482 110.45552 36130 ft 456 kts 307°
2026-05-03 22:44 25.02041 110.40729 36128 ft 453 kts 307°
2026-05-03 22:44 25.06589 110.35925 36137 ft 452 kts 307°
2026-05-03 22:45 25.11131 110.31124 36138 ft 452 kts 307°
2026-05-03 22:45 25.15672 110.26320 36137 ft 450 kts 307°
2026-05-03 22:46 25.20176 110.21559 36145 ft 447 kts 307°
2026-05-03 22:46 25.24652 110.16850 36145 ft 448 kts 307°
2026-05-03 22:47 25.29178 110.12114 36155 ft 448 kts 307°
2026-05-03 22:47 25.33688 110.07396 36152 ft 445 kts 307°
2026-05-03 22:48 25.38180 110.02683 36152 ft 445 kts 307°
2026-05-03 22:48 25.42671 109.97961 36149 ft 445 kts 307°
2026-05-03 22:49 25.47155 109.93232 36184 ft 445 kts 307°
2026-05-03 22:49 25.51644 109.88510 36153 ft 445 kts 307°
2026-05-03 22:50 25.56130 109.83784 36154 ft 444 kts 307°
2026-05-03 22:50 25.60605 109.79063 36161 ft 444 kts 307°
2026-05-03 22:51 25.65073 109.74349 36155 ft 443 kts 307°
2026-05-03 22:51 25.69536 109.69632 36150 ft 443 kts 307°
2026-05-03 22:52 25.73980 109.64892 36161 ft 441 kts 304°
2026-05-03 22:52 25.77554 109.59552 36165 ft 423 kts 290°
2026-05-03 22:53 25.79682 109.53579 36162 ft 414 kts 281°
2026-05-03 22:53 25.81323 109.47473 36168 ft 413 kts 279°
2026-05-03 22:54 25.82877 109.41383 36170 ft 413 kts 279°
2026-05-03 22:54 25.84458 109.35250 36189 ft 414 kts 281°
2026-05-03 22:55 25.86061 109.29114 36168 ft 414 kts 281°
2026-05-03 22:55 25.87671 109.22978 36182 ft 414 kts 281°
2026-05-03 22:56 25.89277 109.16836 36176 ft 414 kts 281°
2026-05-03 22:56 25.90880 109.10698 36199 ft 414 kts 281°
2026-05-03 22:57 25.92485 109.04543 36184 ft 416 kts 281°
2026-05-03 22:57 25.94116 108.98383 36181 ft 415 kts 282°
2026-05-03 22:58 25.95756 108.92221 36203 ft 416 kts 282°
2026-05-03 22:58 25.97398 108.86056 36192 ft 416 kts 282°
2026-05-03 22:59 25.99034 108.79882 36200 ft 416 kts 282°
2026-05-03 22:59 26.00653 108.73749 36205 ft 417 kts 282°
2026-05-03 23:00 26.02296 108.67552 36205 ft 419 kts 282°
2026-05-03 23:00 26.03949 108.61341 36223 ft 419 kts 282°
2026-05-03 23:01 26.05601 108.55133 36204 ft 418 kts 282°
2026-05-03 23:01 26.07240 108.48937 36210 ft 418 kts 282°
2026-05-03 23:02 26.08878 108.42739 36225 ft 417 kts 282°
2026-05-03 23:02 26.11012 108.36693 36222 ft 422 kts 289°
2026-05-03 23:03 26.13513 108.30773 36221 ft 424 kts 290°
2026-05-03 23:03 26.16088 108.24863 36218 ft 424 kts 290°
2026-05-03 23:04 26.18656 108.18951 36221 ft 424 kts 290°
2026-05-03 23:04 26.21209 108.13050 36231 ft 423 kts 290°
2026-05-03 23:05 26.23744 108.07177 36229 ft 424 kts 290°
2026-05-03 23:05 26.26293 108.01256 36240 ft 424 kts 290°
2026-05-03 23:06 26.28841 107.95337 36232 ft 423 kts 290°
2026-05-03 23:06 26.31379 107.89427 36229 ft 422 kts 290°
2026-05-03 23:07 26.33906 107.83525 36271 ft 422 kts 290°
2026-05-03 23:07 26.36434 107.77611 36240 ft 423 kts 290°
2026-05-03 23:08 26.38964 107.71688 36249 ft 423 kts 290°
2026-05-03 23:08 26.41492 107.65766 36248 ft 423 kts 290°
2026-05-03 23:09 26.44015 107.59848 36254 ft 422 kts 290°
2026-05-03 23:09 26.46532 107.53933 36258 ft 422 kts 290°
2026-05-03 23:10 26.49044 107.48016 36255 ft 422 kts 290°
2026-05-03 23:10 26.51553 107.42091 36276 ft 422 kts 290°
2026-05-03 23:11 26.53638 107.37162 36269 ft 422 kts 290°
2026-05-03 23:11 26.56548 107.30287 36277 ft 421 kts 290°
2026-05-03 23:12 26.59048 107.24377 36276 ft 421 kts 290°
2026-05-03 23:12 26.61548 107.18463 36285 ft 421 kts 290°
2026-05-03 23:13 26.63626 107.13543 36280 ft 421 kts 290°
2026-05-03 23:13 26.66135 107.07627 36280 ft 421 kts 290°
2026-05-03 23:14 26.68653 107.01708 36293 ft 422 kts 290°
2026-05-03 23:14 26.71169 106.95783 36288 ft 422 kts 290°
2026-05-03 23:15 26.73676 106.89863 36292 ft 421 kts 290°
2026-05-03 23:15 26.76181 106.83936 36296 ft 421 kts 290°
2026-05-03 23:16 26.79156 106.78234 36293 ft 431 kts 302°
2026-05-03 23:16 26.83372 106.73364 36297 ft 439 kts 310°
2026-05-03 23:17 26.87968 106.68821 36307 ft 441 kts 312°
2026-05-03 23:17 26.92618 106.64341 36296 ft 440 kts 312°
2026-05-03 23:18 26.97238 106.59855 36299 ft 439 kts 312°
2026-05-03 23:18 27.01812 106.55373 36296 ft 439 kts 312°
2026-05-03 23:19 27.06409 106.50853 36300 ft 439 kts 311°
2026-05-03 23:19 27.11002 106.46329 36319 ft 439 kts 312°
2026-05-03 23:20 27.15582 106.41815 36309 ft 437 kts 312°
2026-05-03 23:20 27.20157 106.37303 36311 ft 438 kts 312°
2026-05-03 23:21 27.24758 106.32805 36319 ft 438 kts 312°
2026-05-03 23:21 27.29366 106.28332 36315 ft 437 kts 312°
2026-05-03 23:22 27.36260 106.21629 36322 ft 437 kts 312°
2026-05-03 23:22 27.40838 106.17145 36329 ft 436 kts 312°
2026-05-03 23:23 27.45426 106.12662 36325 ft 436 kts 312°
2026-05-03 23:23 27.50015 106.08185 36327 ft 437 kts 312°
2026-05-03 23:24 27.54603 106.03695 36329 ft 437 kts 312°
2026-05-03 23:24 27.59189 105.99199 36327 ft 437 kts 312°
2026-05-03 23:25 27.63766 105.94704 36332 ft 436 kts 312°
2026-05-03 23:25 27.68332 105.90216 36331 ft 435 kts 312°
2026-05-03 23:26 27.72317 105.85221 36335 ft 423 kts 298°
2026-05-03 23:26 27.74864 105.79344 36331 ft 415 kts 285°
2026-05-03 23:27 27.76689 105.73165 36337 ft 415 kts 283°
2026-05-03 23:27 27.78379 105.66937 36338 ft 415 kts 283°
2026-05-03 23:28 27.80205 105.60744 36332 ft 417 kts 287°
2026-05-03 23:28 27.82447 105.54700 36341 ft 417 kts 288°
2026-05-03 23:29 27.84774 105.48690 36341 ft 417 kts 289°
2026-05-03 23:29 27.87442 105.42896 36333 ft 424 kts 298°
2026-05-03 23:30 27.91486 105.37924 36341 ft 439 kts 314°
2026-05-03 23:30 27.96820 105.34304 36349 ft 452 kts 324°
2026-05-03 23:31 28.02506 105.31188 36338 ft 455 kts 326°
2026-05-03 23:31 28.08236 105.28136 36340 ft 455 kts 326°
2026-05-03 23:32 28.13926 105.25063 36344 ft 451 kts 326°
2026-05-03 23:32 28.19569 105.21974 36341 ft 450 kts 326°
2026-05-03 23:33 28.25199 105.18874 36341 ft 450 kts 326°
2026-05-03 23:33 28.30833 105.15766 36336 ft 450 kts 326°
2026-05-03 23:34 28.36459 105.12665 36339 ft 450 kts 326°
2026-05-03 23:34 28.42091 105.09553 36349 ft 450 kts 326°
2026-05-03 23:35 28.47703 105.06454 36332 ft 448 kts 325°
2026-05-03 23:35 28.53305 105.03359 36333 ft 448 kts 326°
2026-05-03 23:36 28.58905 105.00261 36338 ft 448 kts 326°
2026-05-03 23:36 28.64507 104.97158 36339 ft 448 kts 326°
2026-05-03 23:37 28.70111 104.94051 36360 ft 448 kts 325°
2026-05-03 23:37 28.75705 104.90945 36339 ft 446 kts 325°
2026-05-03 23:38 28.81244 104.87867 36333 ft 446 kts 325°
2026-05-03 23:38 28.86818 104.84763 36333 ft 446 kts 325°
2026-05-03 23:39 28.92394 104.81655 36334 ft 446 kts 325°
2026-05-03 23:39 28.97967 104.78542 36335 ft 446 kts 325°
2026-05-03 23:40 29.03542 104.75426 36334 ft 446 kts 325°
2026-05-03 23:40 29.09117 104.72305 36333 ft 446 kts 325°
2026-05-03 23:41 29.14694 104.69180 36330 ft 446 kts 325°
2026-05-03 23:41 29.20273 104.66051 36329 ft 446 kts 325°
2026-05-03 23:42 29.25848 104.62919 36332 ft 446 kts 325°
2026-05-03 23:42 29.31710 104.60348 36352 ft 462 kts 338°
2026-05-03 23:43 29.38182 104.59348 36330 ft 474 kts 346°
2026-05-03 23:43 29.44783 104.58790 36332 ft 476 kts 347°
2026-05-03 23:44 29.51402 104.58303 36333 ft 476 kts 347°
2026-05-03 23:44 29.58013 104.57787 36338 ft 476 kts 347°
2026-05-03 23:45 29.64631 104.57240 36333 ft 478 kts 347°
2026-05-03 23:45 29.71276 104.56681 36329 ft 479 kts 347°
2026-05-03 23:46 29.77880 104.56134 36336 ft 479 kts 347°
2026-05-03 23:46 29.84529 104.55580 36335 ft 479 kts 347°
2026-05-03 23:47 29.91183 104.55024 36329 ft 479 kts 347°
2026-05-03 23:47 29.97834 104.54467 36340 ft 479 kts 347°
2026-05-03 23:48 30.04489 104.53909 36328 ft 479 kts 347°
2026-05-03 23:48 30.11142 104.53350 36329 ft 479 kts 347°
2026-05-03 23:49 30.17796 104.52792 36344 ft 479 kts 346°
2026-05-03 23:49 30.24431 104.52235 36339 ft 477 kts 346°
2026-05-03 23:50 30.29936 104.51771 36339 ft 477 kts 346°
2026-05-03 23:50 30.37675 104.51117 36339 ft 477 kts 346°
2026-05-03 23:51 30.44305 104.50557 36336 ft 477 kts 346°
2026-05-03 23:51 30.50928 104.49997 36334 ft 477 kts 346°
2026-05-03 23:52 30.57505 104.49436 36333 ft 476 kts 345°
2026-05-03 23:52 30.63850 104.47902 36325 ft 461 kts 334°
2026-05-03 23:53 30.69949 104.45688 36333 ft 459 kts 333°
2026-05-03 23:53 30.75991 104.43349 36320 ft 456 kts 332°
2026-05-03 23:54 30.82004 104.41009 36325 ft 455 kts 332°
2026-05-03 23:54 30.88208 104.39190 36321 ft 471 kts 344°
2026-05-03 23:55 30.94816 104.38717 36315 ft 478 kts 348°
2026-05-03 23:55 31.01480 104.38547 36325 ft 480 kts 349°
2026-05-03 23:56 31.08152 104.38423 36320 ft 479 kts 348°
2026-05-03 23:56 31.14808 104.38272 36314 ft 479 kts 348°
2026-05-03 23:57 31.21470 104.38100 36321 ft 478 kts 348°
2026-05-03 23:57 31.28114 104.37866 36324 ft 477 kts 347°
2026-05-03 23:58 31.34720 104.37482 36314 ft 475 kts 346°
2026-05-03 23:58 31.41318 104.37068 36313 ft 475 kts 346°
2026-05-03 23:59 31.47914 104.36668 36316 ft 475 kts 347°
2026-05-03 23:59 31.54513 104.36279 36343 ft 475 kts 347°
2026-05-04 00:00 31.61100 104.35895 36325 ft 473 kts 347°
2026-05-04 00:00 31.67673 104.35508 36323 ft 473 kts 347°
2026-05-04 00:01 31.74207 104.35125 36327 ft 474 kts 347°
2026-05-04 00:01 31.80797 104.34760 36356 ft 474 kts 347°
2026-05-04 00:02 31.87398 104.34420 36328 ft 474 kts 347°
2026-05-04 00:02 31.93993 104.34093 36339 ft 475 kts 347°
2026-05-04 00:03 31.99476 104.33814 36326 ft 474 kts 347°
2026-05-04 00:03 32.06063 104.33476 36326 ft 474 kts 347°
2026-05-04 00:04 32.12654 104.33137 36336 ft 474 kts 346°
2026-05-04 00:04 32.19239 104.32796 36337 ft 474 kts 346°
2026-05-04 00:05 32.25831 104.32453 36339 ft 474 kts 346°
2026-05-04 00:05 32.32425 104.32112 36335 ft 474 kts 346°
2026-05-04 00:06 32.39017 104.31769 36345 ft 475 kts 346°
2026-05-04 00:06 32.45626 104.31437 36350 ft 476 kts 346°
2026-05-04 00:07 32.52242 104.31118 36352 ft 476 kts 346°
2026-05-04 00:07 32.58860 104.30797 36351 ft 476 kts 346°
2026-05-04 00:08 32.65491 104.30483 36363 ft 478 kts 346°
2026-05-04 00:08 32.72139 104.30164 36364 ft 479 kts 346°
2026-05-04 00:09 32.78795 104.29847 36364 ft 479 kts 346°
2026-05-04 00:09 32.85465 104.29521 36359 ft 480 kts 346°
2026-05-04 00:10 32.92140 104.29206 36375 ft 480 kts 346°
2026-05-04 00:10 32.98812 104.28880 36372 ft 479 kts 346°
2026-05-04 00:11 33.05468 104.28556 36358 ft 479 kts 346°
2026-05-04 00:11 33.12138 104.28226 36363 ft 480 kts 347°
2026-05-04 00:12 33.18828 104.27899 36368 ft 480 kts 346°
2026-05-04 00:12 33.25477 104.27526 36375 ft 473 kts 342°
2026-05-04 00:13 33.28671 104.26875 36370 ft 459 kts 334°
2026-05-04 00:13 33.31653 104.25703 36382 ft 445 kts 326°
2026-05-04 00:13 33.34322 104.24064 36369 ft 431 kts 317°
2026-05-04 00:13 33.36701 104.21967 36375 ft 419 kts 308°
2026-05-04 00:14 33.40349 104.16779 36397 ft 401 kts 294°
2026-05-04 00:14 33.43067 104.10990 36383 ft 398 kts 291°
2026-05-04 00:15 33.45636 104.05120 36379 ft 398 kts 291°
2026-05-04 00:15 33.48210 103.99264 36393 ft 399 kts 291°
2026-05-04 00:16 33.50826 103.93379 36386 ft 401 kts 291°
2026-05-04 00:16 33.53447 103.87489 36394 ft 399 kts 291°
2026-05-04 00:17 33.56067 103.81617 36391 ft 400 kts 291°
2026-05-04 00:17 33.58686 103.75727 36398 ft 402 kts 291°
2026-05-04 00:18 33.61291 103.69799 36395 ft 402 kts 291°
2026-05-04 00:18 33.63902 103.63877 36400 ft 401 kts 291°
2026-05-04 00:19 33.66514 103.57969 36379 ft 399 kts 291°
2026-05-04 00:19 33.69098 103.52096 36397 ft 398 kts 291°
2026-05-04 00:20 33.71664 103.46241 36402 ft 400 kts 291°
2026-05-04 00:20 33.74280 103.40296 36433 ft 404 kts 292°
2026-05-04 00:21 33.76907 103.34299 36397 ft 407 kts 292°
2026-05-04 00:21 33.79537 103.28281 36402 ft 406 kts 292°
2026-05-04 00:22 33.82174 103.22256 36396 ft 408 kts 292°
2026-05-04 00:22 33.84815 103.16213 36389 ft 408 kts 292°
2026-05-04 00:23 33.87451 103.10157 36397 ft 409 kts 292°
2026-05-04 00:23 33.90100 103.04060 36403 ft 412 kts 292°
2026-05-04 00:24 33.92748 102.97964 36404 ft 411 kts 292°
2026-05-04 00:24 33.95389 102.91869 36399 ft 410 kts 292°
2026-05-04 00:25 33.98026 102.85769 36400 ft 410 kts 292°
2026-05-04 00:25 34.00658 102.79670 36401 ft 410 kts 292°
2026-05-04 00:26 34.03274 102.73595 36403 ft 412 kts 292°
2026-05-04 00:26 34.05922 102.67440 36401 ft 415 kts 292°
2026-05-04 00:27 34.08572 102.61264 36418 ft 414 kts 293°
2026-05-04 00:27 34.11228 102.55056 36382 ft 419 kts 292°
2026-05-04 00:28 34.13905 102.48800 36399 ft 420 kts 293°
2026-05-04 00:28 34.16582 102.42537 36398 ft 419 kts 293°
2026-05-04 00:29 34.19259 102.36276 36397 ft 421 kts 294°
2026-05-04 00:29 34.22013 102.30012 36392 ft 423 kts 294°
2026-05-04 00:30 34.24799 102.23748 36391 ft 423 kts 294°
2026-05-04 00:30 34.27580 102.17482 36380 ft 423 kts 294°
2026-05-04 00:31 34.30351 102.11208 36388 ft 423 kts 294°
2026-05-04 00:31 34.33118 102.04926 36395 ft 424 kts 293°
2026-05-04 00:32 34.35894 101.98603 36386 ft 426 kts 294°
2026-05-04 00:32 34.38662 101.92278 36394 ft 425 kts 294°
2026-05-04 00:33 34.42825 101.82782 36389 ft 427 kts 295°
2026-05-04 00:34 34.45617 101.76387 36384 ft 430 kts 295°
2026-05-04 00:34 34.48414 101.69974 36386 ft 431 kts 295°
2026-05-04 00:35 34.51211 101.63548 36389 ft 432 kts 295°
2026-05-04 00:35 34.54015 101.57089 36384 ft 433 kts 295°
2026-05-04 00:36 34.56803 101.50659 36377 ft 433 kts 295°
2026-05-04 00:36 34.59603 101.44187 36375 ft 433 kts 295°
2026-05-04 00:37 34.62397 101.37719 36379 ft 433 kts 295°
2026-05-04 00:37 34.65188 101.31241 36369 ft 433 kts 295°
2026-05-04 00:38 34.67984 101.24747 36383 ft 435 kts 295°
2026-05-04 00:38 34.70783 101.18209 36381 ft 437 kts 295°
2026-05-04 00:39 34.73584 101.11661 36384 ft 436 kts 295°
2026-05-04 00:39 34.76394 101.05099 36380 ft 439 kts 296°
2026-05-04 00:40 34.79217 100.98496 36381 ft 440 kts 295°
2026-05-04 00:40 34.82039 100.91877 36379 ft 440 kts 296°
2026-05-04 00:41 34.84858 100.85254 36382 ft 441 kts 295°
2026-05-04 00:41 34.87670 100.78631 36381 ft 440 kts 295°
2026-05-04 00:42 34.90458 100.72050 36379 ft 441 kts 295°
2026-05-04 00:42 34.93276 100.65422 36376 ft 440 kts 295°
2026-05-04 00:43 34.96069 100.58790 36384 ft 440 kts 295°
2026-05-04 00:43 34.98858 100.52147 36365 ft 441 kts 295°
2026-05-04 00:44 35.01657 100.45476 36367 ft 442 kts 296°
2026-05-04 00:44 35.04461 100.38788 36358 ft 443 kts 296°
2026-05-04 00:45 35.07262 100.32091 36364 ft 443 kts 296°
2026-05-04 00:45 35.10072 100.25364 36356 ft 446 kts 296°
2026-05-04 00:46 35.12890 100.18607 36348 ft 447 kts 296°
2026-05-04 00:46 35.15710 100.11824 36354 ft 448 kts 296°
2026-05-04 00:47 35.18532 100.05030 36355 ft 448 kts 296°
2026-05-04 00:47 35.21348 99.98235 36352 ft 448 kts 296°
2026-05-04 00:48 35.24139 99.91485 36357 ft 448 kts 296°
2026-05-04 00:48 35.26949 99.84681 36353 ft 448 kts 296°
2026-05-04 00:49 35.29752 99.77874 36362 ft 448 kts 296°
2026-05-04 00:49 35.32558 99.71044 36360 ft 449 kts 296°
2026-05-04 00:50 35.35360 99.64217 36370 ft 449 kts 296°
2026-05-04 00:50 35.38158 99.57376 36379 ft 450 kts 296°
2026-05-04 00:51 35.40965 99.50494 36385 ft 453 kts 296°
2026-05-04 00:51 35.43783 99.43580 36378 ft 454 kts 296°
2026-05-04 00:52 35.46604 99.36648 36397 ft 455 kts 296°
2026-05-04 00:52 35.49423 99.29703 36387 ft 455 kts 296°
2026-05-04 00:53 35.52237 99.22753 36403 ft 455 kts 296°
2026-05-04 00:53 35.54573 99.16975 36399 ft 455 kts 296°
2026-05-04 00:54 35.57381 99.10016 36402 ft 454 kts 296°
2026-05-04 00:54 35.60184 99.03054 36404 ft 455 kts 296°
2026-05-04 00:55 35.62988 98.96073 36406 ft 455 kts 296°
2026-05-04 00:55 35.65788 98.89088 36407 ft 455 kts 296°
2026-05-04 00:56 35.68584 98.82099 36407 ft 456 kts 297°
2026-05-04 00:56 35.71382 98.75088 36403 ft 457 kts 297°
2026-05-04 00:57 35.74179 98.68063 36404 ft 457 kts 297°
2026-05-04 00:57 35.76972 98.61036 36397 ft 457 kts 297°
2026-05-04 00:58 35.79761 98.54005 36395 ft 457 kts 297°
2026-05-04 00:58 35.82543 98.46974 36379 ft 457 kts 297°
2026-05-04 00:59 35.85321 98.39931 36384 ft 457 kts 297°
2026-05-04 00:59 35.88083 98.32936 36355 ft 456 kts 297°
2026-05-04 01:00 35.90855 98.25890 36361 ft 456 kts 297°
2026-05-04 01:00 35.93615 98.18845 36356 ft 456 kts 297°
2026-05-04 01:01 35.96379 98.11793 36360 ft 456 kts 297°
2026-05-04 01:01 35.99134 98.04738 36332 ft 457 kts 297°
2026-05-04 01:02 36.01894 97.97652 36312 ft 459 kts 297°
2026-05-04 01:02 36.04658 97.90537 36310 ft 459 kts 297°
2026-05-04 01:03 36.07416 97.83424 36303 ft 459 kts 297°
2026-05-04 01:03 36.10171 97.76307 36302 ft 459 kts 297°
2026-05-04 01:04 36.12923 97.69182 36297 ft 459 kts 297°
2026-05-04 01:04 36.15680 97.62064 36298 ft 459 kts 297°
2026-05-04 01:05 36.18517 97.54996 36315 ft 458 kts 298°
2026-05-04 01:05 36.21375 97.47951 36319 ft 457 kts 298°
2026-05-04 01:06 36.24223 97.40906 36309 ft 457 kts 298°
2026-05-04 01:06 36.27059 97.33855 36306 ft 457 kts 298°
2026-05-04 01:07 36.29889 97.26792 36311 ft 457 kts 298°
2026-05-04 01:07 36.32714 97.19726 36308 ft 457 kts 298°
2026-05-04 01:08 36.35516 97.12705 36300 ft 457 kts 298°
2026-05-04 01:08 36.38334 97.05627 36300 ft 457 kts 298°
2026-05-04 01:09 36.41146 96.98546 36297 ft 457 kts 297°
2026-05-04 01:09 36.43955 96.91460 36297 ft 457 kts 297°
2026-05-04 01:10 36.46759 96.84370 36297 ft 457 kts 297°
2026-05-04 01:10 36.49557 96.77279 36292 ft 456 kts 297°
2026-05-04 01:11 36.52345 96.70199 36292 ft 456 kts 297°
2026-05-04 01:11 36.55126 96.63121 36287 ft 456 kts 297°
2026-05-04 01:12 36.57920 96.56040 36287 ft 456 kts 298°
2026-05-04 01:12 36.60754 96.48963 36284 ft 457 kts 298°
2026-05-04 01:13 36.63592 96.41884 36283 ft 456 kts 298°
2026-05-04 01:13 36.66415 96.34816 36281 ft 455 kts 298°
2026-05-04 01:14 36.69226 96.27754 36281 ft 455 kts 298°
2026-05-04 01:14 36.72036 96.20677 36278 ft 455 kts 298°
2026-05-04 01:15 36.74839 96.13602 36278 ft 455 kts 298°
2026-05-04 01:15 36.77640 96.06519 36271 ft 455 kts 298°
2026-05-04 01:16 36.80451 95.99445 36278 ft 455 kts 298°
2026-05-04 01:16 36.83270 95.92372 36276 ft 455 kts 298°
2026-05-04 01:17 36.86082 95.85300 36277 ft 455 kts 298°
2026-05-04 01:17 36.88872 95.78262 36274 ft 455 kts 298°
2026-05-04 01:18 36.91677 95.71170 36278 ft 455 kts 298°
2026-05-04 01:18 36.94476 95.64076 36275 ft 455 kts 298°
2026-05-04 01:19 36.97268 95.56982 36273 ft 454 kts 298°
2026-05-04 01:19 37.00057 95.49889 36274 ft 454 kts 298°
2026-05-04 01:20 37.02903 95.42836 36276 ft 454 kts 299°
2026-05-04 01:20 37.05776 95.35796 36275 ft 454 kts 299°
2026-05-04 01:21 37.08646 95.28747 36268 ft 454 kts 298°
2026-05-04 01:21 37.11502 95.21695 36275 ft 454 kts 298°
2026-05-04 01:22 37.14351 95.14640 36267 ft 454 kts 298°
2026-05-04 01:22 37.17199 95.07568 36272 ft 454 kts 298°
2026-05-04 01:23 37.20041 95.00494 36257 ft 454 kts 298°
2026-05-04 01:23 37.22880 94.93415 36260 ft 454 kts 298°
2026-05-04 01:24 37.25713 94.86338 36262 ft 453 kts 298°
2026-05-04 01:24 37.28538 94.79262 36261 ft 453 kts 298°
2026-05-04 01:25 37.31360 94.72176 36260 ft 453 kts 298°
2026-05-04 01:25 37.34178 94.65087 36259 ft 453 kts 298°
2026-05-04 01:26 37.36989 94.57997 36258 ft 453 kts 298°
2026-05-04 01:26 37.39794 94.50906 36257 ft 453 kts 298°
2026-05-04 01:27 37.42598 94.43804 36255 ft 453 kts 298°
2026-05-04 01:27 37.45399 94.36691 36250 ft 453 kts 298°
2026-05-04 01:28 37.48194 94.29580 36244 ft 453 kts 298°
2026-05-04 01:28 37.50984 94.22463 36246 ft 453 kts 298°
2026-05-04 01:29 37.53751 94.15390 36242 ft 453 kts 297°
2026-05-04 01:29 37.56530 94.08270 36236 ft 453 kts 297°
2026-05-04 01:30 37.59307 94.01139 36234 ft 453 kts 297°
2026-05-04 01:30 37.62078 93.94009 36228 ft 453 kts 297°
2026-05-04 01:31 37.64845 93.86869 36228 ft 453 kts 297°
2026-05-04 01:31 37.67607 93.79728 36213 ft 453 kts 297°
2026-05-04 01:32 37.70369 93.72570 36227 ft 453 kts 297°
2026-05-04 01:32 37.73124 93.65414 36226 ft 453 kts 297°
2026-05-04 01:33 37.75876 93.58247 36227 ft 453 kts 297°
2026-05-04 01:33 37.78623 93.51078 36224 ft 453 kts 297°
2026-05-04 01:34 37.81367 93.43901 36217 ft 453 kts 297°
2026-05-04 01:34 37.84106 93.36719 36223 ft 453 kts 297°
2026-05-04 01:35 37.86840 93.29535 36224 ft 453 kts 297°
2026-05-04 01:35 37.89569 93.22347 36224 ft 453 kts 297°
2026-05-04 01:36 37.92295 93.15149 36217 ft 453 kts 297°
2026-05-04 01:36 37.95000 93.07990 36213 ft 454 kts 297°
2026-05-04 01:37 37.97719 93.00775 36215 ft 454 kts 296°
2026-05-04 01:37 38.00436 92.93552 36218 ft 454 kts 296°
2026-05-04 01:38 38.03144 92.86332 36216 ft 454 kts 296°
2026-05-04 01:38 38.05850 92.79103 36214 ft 454 kts 296°
2026-05-04 01:39 38.08552 92.71866 36213 ft 454 kts 296°
2026-05-04 01:39 38.11249 92.64627 36207 ft 454 kts 296°
2026-05-04 01:40 38.13940 92.57385 36209 ft 453 kts 296°
2026-05-04 01:40 38.16615 92.50134 36225 ft 453 kts 295°
2026-05-04 01:41 38.18971 92.42692 36217 ft 454 kts 291°
2026-05-04 01:41 38.20778 92.36424 36212 ft 455 kts 291°
2026-05-04 01:42 38.22947 92.28872 36195 ft 455 kts 291°
2026-05-04 01:42 38.25142 92.21340 36210 ft 453 kts 291°
2026-05-04 01:43 38.27345 92.13829 36218 ft 453 kts 291°
2026-05-04 01:43 38.29544 92.06323 36215 ft 453 kts 291°
2026-05-04 01:44 38.31741 91.98804 36214 ft 453 kts 291°
2026-05-04 01:44 38.33930 91.91285 36207 ft 453 kts 291°
2026-05-04 01:45 38.36097 91.83815 36206 ft 452 kts 291°
2026-05-04 01:45 38.39356 91.72551 36208 ft 452 kts 291°
2026-05-04 01:46 38.41521 91.65038 36215 ft 452 kts 291°
2026-05-04 01:46 38.43684 91.57512 36206 ft 452 kts 291°
2026-05-04 01:47 38.45842 91.49983 36209 ft 452 kts 291°
2026-05-04 01:47 38.47991 91.42460 36198 ft 451 kts 291°
2026-05-04 01:48 38.50134 91.34943 36197 ft 451 kts 291°
2026-05-04 01:48 38.52271 91.27421 36212 ft 451 kts 291°
2026-05-04 01:49 38.54406 91.19887 36208 ft 451 kts 291°
2026-05-04 01:49 38.56534 91.12356 36206 ft 451 kts 291°
2026-05-04 01:50 38.58656 91.04827 36197 ft 450 kts 291°
2026-05-04 01:50 38.60770 90.97301 36197 ft 450 kts 291°
2026-05-04 01:51 38.62877 90.89778 36185 ft 449 kts 291°
2026-05-04 01:51 38.64979 90.82254 36185 ft 449 kts 291°
2026-05-04 01:52 38.67065 90.74763 36158 ft 450 kts 291°
2026-05-04 01:52 38.69220 90.67265 36164 ft 448 kts 293°
2026-05-04 01:53 38.71583 90.59886 36156 ft 448 kts 294°
2026-05-04 01:53 38.73987 90.52534 36158 ft 448 kts 294°
2026-05-04 01:54 38.76371 90.45162 36152 ft 448 kts 294°
2026-05-04 01:54 38.78733 90.37777 36141 ft 448 kts 294°
2026-05-04 01:55 38.81081 90.30398 36139 ft 446 kts 294°
2026-05-04 01:55 38.83415 90.23045 36141 ft 445 kts 294°
2026-05-04 01:56 38.85748 90.15683 36120 ft 446 kts 294°
2026-05-04 01:56 38.88076 90.08316 36105 ft 445 kts 294°
2026-05-04 01:57 38.90399 90.00948 36106 ft 445 kts 294°
2026-05-04 01:57 38.92716 89.93578 36095 ft 445 kts 294°
2026-05-04 01:58 38.95025 89.86214 36069 ft 444 kts 294°
2026-05-04 01:58 38.97327 89.78857 36073 ft 444 kts 294°
2026-05-04 01:59 38.99621 89.71488 36069 ft 444 kts 293°
2026-05-04 01:59 39.01914 89.64118 36059 ft 444 kts 293°
2026-05-04 02:00 39.04188 89.56792 36031 ft 444 kts 293°
2026-05-04 02:00 39.06475 89.49404 36022 ft 444 kts 293°
2026-05-04 02:01 39.08756 89.42013 36021 ft 444 kts 293°
2026-05-04 02:01 39.11033 89.34615 36016 ft 444 kts 293°
2026-05-04 02:02 39.13306 89.27210 35991 ft 445 kts 293°
2026-05-04 02:02 39.15574 89.19799 35984 ft 445 kts 293°
2026-05-04 02:03 39.17836 89.12386 35984 ft 444 kts 293°
2026-05-04 02:03 39.20093 89.04974 35987 ft 444 kts 293°
2026-05-04 02:04 39.22343 88.97563 35970 ft 444 kts 293°
2026-05-04 02:04 39.24589 88.90143 35976 ft 444 kts 293°
2026-05-04 02:05 39.26832 88.82717 35975 ft 444 kts 293°
2026-05-04 02:05 39.29066 88.75297 35976 ft 443 kts 292°
2026-05-04 02:06 39.31295 88.67873 35969 ft 443 kts 292°
2026-05-04 02:06 39.33518 88.60448 35969 ft 443 kts 292°
2026-05-04 02:07 39.35738 88.53016 35965 ft 444 kts 292°
2026-05-04 02:07 39.37955 88.45570 35962 ft 444 kts 292°
2026-05-04 02:08 39.40169 88.38116 35962 ft 444 kts 292°
2026-05-04 02:08 39.42373 88.30673 35964 ft 444 kts 292°
2026-05-04 02:09 39.44561 88.23264 35962 ft 444 kts 292°
2026-05-04 02:09 39.46758 88.15804 35968 ft 444 kts 292°
2026-05-04 02:10 39.48951 88.08338 35954 ft 444 kts 292°
2026-05-04 02:10 39.51139 88.00867 35967 ft 444 kts 292°
2026-05-04 02:11 39.53321 87.93396 35967 ft 443 kts 292°
2026-05-04 02:11 39.55497 87.85923 35968 ft 443 kts 292°
2026-05-04 02:12 39.57669 87.78443 35966 ft 444 kts 292°
2026-05-04 02:12 39.59840 87.70945 35962 ft 444 kts 292°
2026-05-04 02:13 39.62005 87.63449 35965 ft 444 kts 291°
2026-05-04 02:13 39.64162 87.55955 35967 ft 443 kts 291°
2026-05-04 02:14 39.66315 87.48456 35970 ft 444 kts 291°
2026-05-04 02:14 39.68449 87.41001 35969 ft 443 kts 291°
2026-05-04 02:15 39.70607 87.33442 35969 ft 443 kts 291°
2026-05-04 02:15 39.72731 87.25980 35970 ft 443 kts 291°
2026-05-04 02:16 39.74861 87.18474 35973 ft 443 kts 291°
2026-05-04 02:16 39.76987 87.10964 35986 ft 443 kts 291°
2026-05-04 02:17 39.79109 87.03443 35973 ft 443 kts 291°
2026-05-04 02:17 39.81228 86.95913 35974 ft 444 kts 291°
2026-05-04 02:18 39.83342 86.88377 35975 ft 443 kts 291°
2026-05-04 02:18 39.85451 86.80837 35976 ft 443 kts 290°
2026-05-04 02:19 39.87555 86.73294 35975 ft 443 kts 290°
2026-05-04 02:19 39.89654 86.65744 35975 ft 443 kts 290°
2026-05-04 02:20 39.91749 86.58190 35980 ft 443 kts 290°
2026-05-04 02:20 39.93839 86.50631 35979 ft 444 kts 290°
2026-05-04 02:21 39.95924 86.43066 35975 ft 444 kts 290°
2026-05-04 02:21 39.98005 86.35491 35987 ft 444 kts 290°
2026-05-04 02:22 40.00067 86.27966 35980 ft 444 kts 290°
2026-05-04 02:22 40.02141 86.20374 35981 ft 444 kts 290°
2026-05-04 02:23 40.04210 86.12778 35985 ft 445 kts 290°
2026-05-04 02:23 40.06276 86.05171 35983 ft 444 kts 290°
2026-05-04 02:24 40.08914 85.97904 35980 ft 444 kts 301°
2026-05-04 02:24 40.12314 85.91165 35980 ft 445 kts 304°
2026-05-04 02:25 40.15849 85.84532 35984 ft 445 kts 304°
2026-05-04 02:25 40.19396 85.77906 35984 ft 445 kts 304°
2026-05-04 02:26 40.22925 85.71259 35983 ft 445 kts 304°
2026-05-04 02:26 40.26442 85.64595 35983 ft 445 kts 304°
2026-05-04 02:27 40.29953 85.57922 35984 ft 445 kts 304°
2026-05-04 02:27 40.33464 85.51235 35989 ft 445 kts 304°
2026-05-04 02:28 40.36968 85.44549 35991 ft 445 kts 304°
2026-05-04 02:28 40.40468 85.37859 35996 ft 445 kts 303°
2026-05-04 02:29 40.43966 85.31154 35994 ft 445 kts 303°
2026-05-04 02:29 40.47466 85.24433 35995 ft 446 kts 303°
2026-05-04 02:30 40.50961 85.17706 35995 ft 446 kts 303°
2026-05-04 02:30 40.54452 85.10972 35997 ft 446 kts 303°
2026-05-04 02:31 40.57940 85.04231 35993 ft 446 kts 303°
2026-05-04 02:31 40.61420 84.97492 35999 ft 445 kts 303°
2026-05-04 02:32 40.64313 84.91876 35997 ft 446 kts 303°
2026-05-04 02:32 40.67792 84.85110 35998 ft 446 kts 303°
2026-05-04 02:33 40.71268 84.78333 36000 ft 446 kts 303°
2026-05-04 02:33 40.75304 84.70449 36000 ft 446 kts 303°
2026-05-04 02:34 40.78209 84.64763 36001 ft 446 kts 302°
2026-05-04 02:34 40.81664 84.57985 36027 ft 445 kts 302°
2026-05-04 02:35 40.85117 84.51194 36025 ft 446 kts 302°
2026-05-04 02:35 40.88544 84.44442 36023 ft 446 kts 302°
2026-05-04 02:36 40.92018 84.37587 36022 ft 446 kts 302°
2026-05-04 02:36 40.95462 84.30775 36029 ft 446 kts 302°
2026-05-04 02:37 40.98879 84.24001 36026 ft 445 kts 302°
2026-05-04 02:37 41.02313 84.17179 36025 ft 445 kts 302°
2026-05-04 02:38 41.05742 84.10352 36025 ft 445 kts 302°
2026-05-04 02:38 41.09166 84.03518 36028 ft 445 kts 302°
2026-05-04 02:39 41.12576 83.96699 36029 ft 443 kts 302°
2026-05-04 02:39 41.15980 83.89876 36026 ft 443 kts 302°
2026-05-04 02:40 41.19383 83.83040 36033 ft 445 kts 301°
2026-05-04 02:40 41.22790 83.76179 36030 ft 445 kts 301°
2026-05-04 02:41 41.26194 83.69310 36037 ft 445 kts 301°
2026-05-04 02:41 41.29594 83.62435 36037 ft 445 kts 301°
2026-05-04 02:42 41.32989 83.55554 36037 ft 445 kts 301°
2026-05-04 02:42 41.36380 83.48665 36036 ft 445 kts 301°
2026-05-04 02:43 41.39768 83.41768 36039 ft 445 kts 301°
2026-05-04 02:43 41.43153 83.34859 36042 ft 445 kts 301°
2026-05-04 02:44 41.46535 83.27942 36040 ft 445 kts 301°
2026-05-04 02:44 41.49913 83.21016 36044 ft 445 kts 301°
2026-05-04 02:45 41.53263 83.14133 36043 ft 445 kts 301°
2026-05-04 02:45 41.56634 83.07191 36044 ft 446 kts 301°
2026-05-04 02:46 41.60003 83.00238 36048 ft 446 kts 301°
2026-05-04 02:46 41.63369 82.93275 36046 ft 446 kts 300°
2026-05-04 02:47 41.66829 82.86388 36051 ft 448 kts 306°
2026-05-04 02:47 41.71275 82.80513 36049 ft 452 kts 316°
2026-05-04 02:48 41.76148 82.75178 36059 ft 453 kts 318°
2026-05-04 02:48 41.81106 82.69930 36057 ft 455 kts 318°
2026-05-04 02:49 41.86070 82.64659 36055 ft 455 kts 318°
2026-05-04 02:49 41.91019 82.59357 36064 ft 455 kts 318°
2026-05-04 02:50 41.95956 82.54041 36098 ft 455 kts 318°
2026-05-04 02:50 42.00903 82.48700 36072 ft 457 kts 318°
2026-05-04 02:51 42.05863 82.43336 36093 ft 458 kts 318°
2026-05-04 02:51 42.10822 82.37964 36100 ft 458 kts 318°
2026-05-04 02:52 42.15780 82.32582 36114 ft 458 kts 318°
2026-05-04 02:52 42.20741 82.27184 36133 ft 459 kts 318°
2026-05-04 02:53 42.25711 82.21765 36127 ft 459 kts 318°
2026-05-04 02:53 42.30650 82.16377 36137 ft 460 kts 318°
2026-05-04 02:54 42.35628 82.10936 36154 ft 461 kts 318°
2026-05-04 02:54 42.40617 82.05447 36151 ft 462 kts 318°
2026-05-04 02:55 42.48100 81.97220 36149 ft 462 kts 318°
2026-05-04 02:56 42.53092 81.91722 36142 ft 462 kts 318°
2026-05-04 02:56 42.58086 81.86206 36116 ft 464 kts 319°
2026-05-04 02:57 42.63087 81.80673 36120 ft 464 kts 318°
2026-05-04 02:57 42.68094 81.75127 36088 ft 464 kts 318°
2026-05-04 02:58 42.72981 81.69409 36075 ft 463 kts 316°
2026-05-04 02:58 42.77765 81.63497 36072 ft 465 kts 315°
2026-05-04 02:59 42.82539 81.57572 36071 ft 464 kts 315°
2026-05-04 02:59 42.87327 81.51661 36073 ft 464 kts 315°
2026-05-04 03:00 42.92084 81.45795 36047 ft 464 kts 315°
2026-05-04 03:00 42.96868 81.39889 36032 ft 464 kts 315°
2026-05-04 03:01 43.01651 81.33969 36032 ft 464 kts 315°
2026-05-04 03:01 43.06427 81.28041 36036 ft 464 kts 315°
2026-05-04 03:02 43.11200 81.22105 36026 ft 464 kts 315°
2026-05-04 03:02 43.15975 81.16153 36024 ft 465 kts 315°
2026-05-04 03:03 43.20751 81.10188 36026 ft 465 kts 315°
2026-05-04 03:03 43.25525 81.04213 36031 ft 465 kts 315°
2026-05-04 03:04 43.30301 80.98221 36033 ft 465 kts 315°
2026-05-04 03:04 43.35087 80.92204 36030 ft 467 kts 315°
2026-05-04 03:05 43.39878 80.86170 36031 ft 467 kts 315°
2026-05-04 03:05 43.44629 80.80090 36032 ft 465 kts 311°
2026-05-04 03:06 43.48398 80.72955 36035 ft 460 kts 294°
2026-05-04 03:06 43.50297 80.64640 36030 ft 455 kts 276°
2026-05-04 03:07 43.50826 80.55959 36039 ft 455 kts 272°
2026-05-04 03:07 43.51103 80.47299 36033 ft 455 kts 271°
2026-05-04 03:08 43.51368 80.38588 36018 ft 455 kts 271°
2026-05-04 03:08 43.51662 80.29880 36022 ft 455 kts 271°
2026-05-04 03:09 43.51968 80.21170 36016 ft 455 kts 271°
2026-05-04 03:09 43.52270 80.12468 36024 ft 455 kts 271°
2026-05-04 03:10 43.52565 80.03771 36025 ft 454 kts 271°
2026-05-04 03:10 43.52852 79.95085 36017 ft 454 kts 271°
2026-05-04 03:11 43.53132 79.86389 36025 ft 454 kts 271°
2026-05-04 03:11 43.53403 79.77756 36015 ft 454 kts 271°
2026-05-04 03:12 43.53670 79.69061 36008 ft 454 kts 271°
2026-05-04 03:12 43.53931 79.60359 36005 ft 455 kts 271°
2026-05-04 03:13 43.54186 79.51647 36004 ft 455 kts 271°
2026-05-04 03:13 43.54434 79.42942 36007 ft 454 kts 271°
2026-05-04 03:14 43.54676 79.34235 36003 ft 455 kts 270°
2026-05-04 03:14 43.54910 79.25525 35998 ft 455 kts 270°
2026-05-04 03:15 43.55137 79.16805 35999 ft 455 kts 270°
2026-05-04 03:15 43.55358 79.08089 36006 ft 455 kts 270°
2026-05-04 03:16 43.55573 78.99371 36006 ft 455 kts 270°
2026-05-04 03:16 43.55780 78.90662 36002 ft 454 kts 270°
2026-05-04 03:17 43.55981 78.81954 36028 ft 454 kts 270°
2026-05-04 03:17 43.56175 78.73305 36015 ft 454 kts 270°
2026-05-04 03:18 43.56363 78.64596 36023 ft 454 kts 270°
2026-05-04 03:18 43.56544 78.55896 36019 ft 454 kts 270°
2026-05-04 03:19 43.56719 78.47198 36022 ft 454 kts 270°
2026-05-04 03:19 43.56887 78.38501 36039 ft 454 kts 270°
2026-05-04 03:20 43.57049 78.29795 36042 ft 454 kts 270°
2026-05-04 03:20 43.57204 78.21100 36045 ft 454 kts 270°
2026-05-04 03:21 43.57353 78.12400 36042 ft 454 kts 270°
2026-05-04 03:21 43.57495 78.03704 36048 ft 454 kts 270°
2026-05-04 03:22 43.57632 77.95004 36065 ft 454 kts 269°
2026-05-04 03:22 43.57762 77.86304 36049 ft 454 kts 269°
2026-05-04 03:23 43.57886 77.77600 36046 ft 454 kts 269°
2026-05-04 03:23 43.58004 77.68891 36047 ft 454 kts 269°
2026-05-04 03:24 43.58097 77.61646 36053 ft 454 kts 269°
2026-05-04 03:24 43.58197 77.52929 36052 ft 454 kts 266°
2026-05-04 03:24 43.57687 77.48674 36051 ft 450 kts 250°
2026-05-04 03:25 43.56304 77.44840 36051 ft 447 kts 234°
2026-05-04 03:25 43.52517 77.38030 36053 ft 449 kts 233°
2026-05-04 03:26 43.48877 77.31041 36062 ft 448 kts 235°
2026-05-04 03:26 43.45354 77.23967 36064 ft 448 kts 235°
2026-05-04 03:27 43.41851 77.16891 36065 ft 447 kts 235°
2026-05-04 03:27 43.38352 77.09824 36066 ft 447 kts 235°
2026-05-04 03:28 43.34920 77.02780 36066 ft 447 kts 236°
2026-05-04 03:28 43.31496 76.95659 36065 ft 447 kts 236°
2026-05-04 03:29 43.28070 76.88550 36067 ft 446 kts 236°
2026-05-04 03:29 43.24640 76.81451 36070 ft 446 kts 236°
2026-05-04 03:30 43.21210 76.74371 36077 ft 446 kts 236°
2026-05-04 03:30 43.17774 76.67296 36077 ft 446 kts 236°
2026-05-04 03:31 43.14334 76.60230 36074 ft 446 kts 236°
2026-05-04 03:31 43.10890 76.53173 36084 ft 446 kts 236°
2026-05-04 03:32 43.07443 76.46124 36081 ft 446 kts 236°
2026-05-04 03:32 43.03987 76.39077 36080 ft 446 kts 235°
2026-05-04 03:33 43.00526 76.32033 36068 ft 446 kts 236°
2026-05-04 03:33 42.97061 76.25001 36084 ft 446 kts 236°
2026-05-04 03:34 42.93598 76.17985 36091 ft 445 kts 235°
2026-05-04 03:34 42.90136 76.10989 36097 ft 445 kts 235°
2026-05-04 03:35 42.86667 76.03997 36099 ft 445 kts 235°
2026-05-04 03:35 42.83192 75.97009 36100 ft 445 kts 235°
2026-05-04 03:36 42.79710 75.90024 36103 ft 445 kts 235°
2026-05-04 03:36 42.76227 75.83050 36099 ft 445 kts 235°
2026-05-04 03:37 42.72766 75.76137 36108 ft 445 kts 234°
2026-05-04 03:37 42.69288 75.69199 36103 ft 444 kts 234°
2026-05-04 03:38 42.65806 75.62283 36106 ft 444 kts 235°
2026-05-04 03:38 42.62318 75.55368 36104 ft 443 kts 234°
2026-05-04 03:39 42.58830 75.48468 36106 ft 443 kts 234°
2026-05-04 03:39 42.55336 75.41570 36103 ft 444 kts 234°
2026-05-04 03:40 42.51833 75.34671 36110 ft 444 kts 234°
2026-05-04 03:40 42.48322 75.27781 36112 ft 445 kts 234°
2026-05-04 03:41 42.44813 75.20890 36123 ft 445 kts 235°
2026-05-04 03:41 42.41291 75.14002 36121 ft 445 kts 234°
2026-05-04 03:42 42.37763 75.07121 36131 ft 446 kts 234°
2026-05-04 03:42 42.34226 75.00233 36113 ft 445 kts 234°
2026-05-04 03:43 42.30712 74.93408 36119 ft 445 kts 234°
2026-05-04 03:43 42.27173 74.86549 36122 ft 445 kts 234°
2026-05-04 03:44 42.23633 74.79706 36114 ft 445 kts 234°
2026-05-04 03:44 42.20087 74.72865 36111 ft 445 kts 233°
2026-05-04 03:45 42.16534 74.66029 36113 ft 445 kts 233°
2026-05-04 03:45 42.12977 74.59198 36090 ft 445 kts 233°
2026-05-04 03:46 42.09419 74.52381 36091 ft 445 kts 233°
2026-05-04 03:46 42.05859 74.45574 36081 ft 445 kts 233°
2026-05-04 03:47 42.02298 74.38783 36087 ft 444 kts 233°
2026-05-04 03:47 41.98732 74.31996 36076 ft 445 kts 233°
2026-05-04 03:48 41.95156 74.25206 36077 ft 445 kts 233°
2026-05-04 03:48 41.91575 74.18422 36073 ft 446 kts 233°
2026-05-04 03:49 41.87986 74.11641 36072 ft 445 kts 233°
2026-05-04 03:49 41.84428 74.04920 36077 ft 445 kts 233°
2026-05-04 03:50 41.80838 73.98166 36080 ft 445 kts 233°
2026-05-04 03:50 41.77242 73.91414 36085 ft 445 kts 233°
2026-05-04 03:51 41.73642 73.84668 36085 ft 445 kts 233°
2026-05-04 03:51 41.70038 73.77931 36097 ft 445 kts 233°
2026-05-04 03:52 41.66426 73.71191 36092 ft 446 kts 233°
2026-05-04 03:52 41.62810 73.64460 36106 ft 445 kts 233°
2026-05-04 03:53 41.59197 73.57745 36102 ft 445 kts 233°
2026-05-04 03:53 41.55580 73.51047 36115 ft 445 kts 233°
2026-05-04 03:54 41.51962 73.44354 36109 ft 444 kts 233°
2026-05-04 03:54 41.48343 73.37673 36108 ft 444 kts 233°
2026-05-04 03:55 41.44722 73.31007 36127 ft 444 kts 233°
2026-05-04 03:55 41.41097 73.24350 36123 ft 444 kts 233°
2026-05-04 03:56 41.37462 73.17686 36122 ft 445 kts 233°
2026-05-04 03:56 41.33822 73.11027 36128 ft 445 kts 233°
2026-05-04 03:57 41.30181 73.04380 36135 ft 444 kts 233°
2026-05-04 03:57 41.26560 72.97784 36133 ft 444 kts 233°
2026-05-04 03:58 41.21075 72.87821 36128 ft 447 kts 232°
2026-05-04 03:58 41.17400 72.81163 36129 ft 447 kts 232°
2026-05-04 03:59 41.13723 72.74515 36121 ft 447 kts 232°
2026-05-04 03:59 41.10042 72.67877 36121 ft 447 kts 232°
2026-05-04 04:00 41.06357 72.61245 36121 ft 447 kts 232°
2026-05-04 04:00 41.02669 72.54623 36121 ft 446 kts 232°
2026-05-04 04:01 40.98981 72.48014 36113 ft 446 kts 232°
2026-05-04 04:01 40.95291 72.41417 36112 ft 446 kts 232°
2026-05-04 04:02 40.91598 72.34828 36109 ft 446 kts 232°
2026-05-04 04:02 40.87923 72.28285 36105 ft 446 kts 232°
2026-05-04 04:03 40.84223 72.21711 36099 ft 446 kts 232°
2026-05-04 04:03 40.80512 72.15132 36098 ft 447 kts 232°
2026-05-04 04:04 40.76797 72.08559 36093 ft 447 kts 231°
2026-05-04 04:04 40.73073 72.01985 36093 ft 447 kts 231°
2026-05-04 04:05 40.69344 71.95416 36089 ft 447 kts 231°
2026-05-04 04:05 40.65611 71.88854 36095 ft 448 kts 231°
2026-05-04 04:06 40.61870 71.82291 36092 ft 449 kts 231°
2026-05-04 04:06 40.58121 71.75728 36100 ft 449 kts 231°
2026-05-04 04:07 40.54366 71.69169 36105 ft 449 kts 231°
2026-05-04 04:07 40.50607 71.62616 36107 ft 449 kts 231°
2026-05-04 04:08 40.46847 71.56074 36114 ft 449 kts 231°
2026-05-04 04:08 40.43101 71.49571 36106 ft 450 kts 231°
2026-05-04 04:09 40.39315 71.43012 36101 ft 451 kts 231°
2026-05-04 04:09 40.35521 71.36454 36095 ft 451 kts 231°
2026-05-04 04:10 40.31725 71.29903 36097 ft 451 kts 231°
2026-05-04 04:10 40.27928 71.23367 36100 ft 451 kts 231°
2026-05-04 04:11 40.24126 71.16834 36100 ft 451 kts 231°
2026-05-04 04:11 40.20333 71.10287 36101 ft 451 kts 231°
2026-05-04 04:12 40.16560 71.03731 36110 ft 451 kts 231°
2026-05-04 04:12 40.12805 70.97160 36109 ft 451 kts 231°
2026-05-04 04:13 40.09067 70.90569 36112 ft 451 kts 232°
2026-05-04 04:13 40.05350 70.83965 36127 ft 452 kts 232°
2026-05-04 04:14 40.01649 70.77339 36123 ft 452 kts 232°
2026-05-04 04:14 39.97963 70.70686 36128 ft 452 kts 233°
2026-05-04 04:15 39.94298 70.64016 36144 ft 452 kts 233°
2026-05-04 04:15 39.90657 70.57336 36150 ft 452 kts 233°
2026-05-04 04:16 39.87648 70.51767 36152 ft 453 kts 233°
2026-05-04 04:16 39.83448 70.43931 36200 ft 455 kts 233°
2026-05-04 04:17 39.79843 70.37164 36176 ft 455 kts 234°
2026-05-04 04:17 39.76257 70.30384 36195 ft 455 kts 234°
2026-05-04 04:18 39.73267 70.24687 36180 ft 455 kts 234°
2026-05-04 04:18 39.69714 70.17874 36217 ft 456 kts 235°
2026-05-04 04:19 39.66166 70.11028 36208 ft 458 kts 235°
2026-05-04 04:19 39.62630 70.04156 36208 ft 458 kts 235°
2026-05-04 04:20 39.59137 69.97322 36211 ft 458 kts 235°
2026-05-04 04:20 39.55635 69.90426 36218 ft 458 kts 236°
2026-05-04 04:21 39.52154 69.83525 36213 ft 457 kts 236°
2026-05-04 04:21 39.48698 69.76629 36217 ft 456 kts 236°
2026-05-04 04:22 39.45262 69.69721 36215 ft 456 kts 237°
2026-05-04 04:22 39.41849 69.62815 36219 ft 456 kts 237°
2026-05-04 04:23 39.38447 69.55892 36219 ft 456 kts 236°
2026-05-04 04:23 39.35061 69.48963 36215 ft 456 kts 237°
2026-05-04 04:24 39.31681 69.42016 36218 ft 457 kts 237°
2026-05-04 04:24 39.28305 69.35052 36219 ft 458 kts 237°
2026-05-04 04:25 39.24946 69.28082 36213 ft 457 kts 237°
2026-05-04 04:25 39.21624 69.21149 36214 ft 457 kts 237°
2026-05-04 04:26 39.18297 69.14165 36214 ft 457 kts 238°
2026-05-04 04:26 39.14984 69.07172 36219 ft 457 kts 238°
2026-05-04 04:27 39.11686 69.00171 36219 ft 457 kts 238°
2026-05-04 04:27 39.08403 68.93160 36224 ft 457 kts 238°
2026-05-04 04:28 39.05135 68.86143 36223 ft 457 kts 238°
2026-05-04 04:28 39.01880 68.79115 36226 ft 457 kts 239°
2026-05-04 04:29 38.98643 68.72076 36232 ft 458 kts 239°
2026-05-04 04:29 38.95416 68.65016 36223 ft 458 kts 239°
2026-05-04 04:30 38.92210 68.57957 36224 ft 458 kts 239°
2026-05-04 04:30 38.89019 68.50882 36234 ft 458 kts 240°
2026-05-04 04:31 38.85846 68.43800 36225 ft 458 kts 240°